EW4918 Weather Reports


time (UTC)temp
C
wind
direction
speed
KPH
gust
KPH
rain 1hr
cm
rain 24hr
cm
rain mn
cm
humidity
%
barometer
mb
20260504050512 5 249 0.0 0.0 0.00 0.05 0.03 94 1008.2
20260504050012 5 237 0.0 0.0 0.00 0.05 0.03 94 1008.1
20260504045511 5 187 0.0 0.0 0.00 0.05 0.03 94 1008.2
20260504045016 5 272 0.0 0.0 0.00 0.05 0.03 94 1008.2
20260504044510 5 228 0.0 0.0 0.00 0.05 0.03 94 1008.3
20260504044015 5 256 0.0 0.0 0.00 0.05 0.03 94 1008.4
20260504043513 5 256 0.0 0.0 0.00 0.05 0.03 94 1008.4
20260504043013 5 264 0.0 0.0 0.00 0.05 0.03 93 1008.5
20260504042512 5 264 0.0 0.0 0.00 0.05 0.03 93 1008.5
20260504042012 5 229 0.0 0.0 0.00 0.03 0.00 93 1008.5
20260504041511 5 194 0.0 0.0 0.00 0.03 0.00 93 1008.6
20260504041010 5 199 0.0 0.0 0.00 0.03 0.00 93 1008.6
20260504040510 5 199 0.0 0.0 0.00 0.03 0.00 92 1008.6
20260504040015 5 190 0.0 0.0 0.00 0.03 0.00 92 1008.6
20260504035514 5 165 0.0 0.0 0.00 0.03 0.03 92 1008.7
20260504034512 5 216 0.0 0.0 0.00 0.03 0.03 91 1008.8
20260504034011 5 194 0.0 1.6 0.00 0.03 0.03 90 1008.9
20260504033515 5 181 0.0 0.0 0.00 0.03 0.03 90 1008.9
20260504033015 5 181 0.0 0.0 0.00 0.03 0.03 90 1008.9
20260504032514 5 192 0.0 0.0 0.00 0.03 0.03 89 1008.9
20260504032013 5 192 0.0 0.0 0.00 0.00 0.00 88 1009.0
20260504031513 5 179 0.0 0.0 0.00 0.00 0.00 87 1009.0
20260504031012 5 148 0.0 0.0 0.00 0.00 0.00 86 1009.0
20260504030511 5 221 0.0 0.0 0.00 0.00 0.00 85 1009.1
20260504030011 5 196 0.0 4.8 0.00 0.00 0.00 84 1009.2
20260504025510 5 240 0.0 0.0 0.00 0.00 0.00 83 1009.3
20260504025015 6 240 0.0 0.0 0.00 0.00 0.00 81 1009.3
20260504024515 6 245 0.0 4.8 0.00 0.00 0.00 78 1009.4
20260504024014 6 0 0.0 6.4 0.00 0.00 0.00 77 1009.4
20260504023512 6 251 0.0 4.8 0.00 0.00 0.00 74 1009.4
20260504023011 6 234 0.0 1.6 0.00 0.00 0.00 73 1009.4
20260504022510 6 174 0.0 1.6 0.00 0.00 0.00 71 1009.4
20260504022010 6 242 0.0 0.0 0.00 0.00 0.00 70 1009.4
20260504021515 6 248 0.0 1.6 0.00 0.00 0.00 69 1009.5
20260504021015 6 288 0.0 3.2 0.00 0.00 0.00 68 1009.4
20260504020514 6 195 0.0 6.4 0.00 0.00 0.00 66 1009.5
20260504015512 7 209 0.0 3.2 0.00 0.00 0.00 62 1009.3
20260504015011 6 242 0.0 0.0 0.00 0.00 0.00 61 1009.3
20260504014510 6 240 1.6 16.1 0.00 0.00 0.00 61 1009.2
20260504014016 6 202 0.0 0.0 0.00 0.00 0.00 60 1009.3
20260504013514 6 220 0.0 0.0 0.00 0.00 0.00 61 1009.3
20260504013013 6 242 0.0 0.0 0.00 0.00 0.00 59 1009.2
20260504012512 6 235 0.0 1.6 0.00 0.00 0.00 58 1009.2
20260504012012 6 223 0.0 1.6 0.00 0.00 0.00 58 1009.2
20260504011511 6 180 0.0 0.0 0.00 0.00 0.00 57 1009.2
20260504011010 6 169 0.0 0.0 0.00 0.00 0.00 57 1009.3
20260504010510 6 230 0.0 0.0 0.00 0.00 0.00 56 1009.3
20260504010009 6 232 0.0 0.0 0.00 0.00 0.00 55 1009.3
20260504005013 6 239 0.0 0.0 0.00 0.00 0.00 55 1009.2
20260504004512 6 259 0.0 1.6 0.00 0.00 0.00 55 1009.2
20260504004011 6 227 0.0 0.0 0.00 0.00 0.00 54 1009.3
20260504003547 6 227 0.0 0.0 0.00 0.00 0.00 53 1009.3
20260504003015 6 221 0.0 0.0 0.00 0.00 0.00 54 1009.3
20260504001516 6 242 0.0 0.0 0.00 0.00 0.00 54 1009.3
20260504000011 6 264 0.0 0.0 0.00 0.00 0.00 51 1009.3
20260503235511 7 225 0.0 0.0 0.00 0.00 0.00 50 1009.3
20260503235010 7 245 0.0 0.0 0.00 0.00 0.00 48 1009.3
20260503234515 7 224 0.0 0.0 0.00 0.00 0.00 48 1009.2
20260503234015 7 244 0.0 0.0 0.00 0.00 0.00 48 1009.2
20260503233514 7 229 0.0 4.8 0.00 0.00 0.00 46 1009.2
20260503232516 7 252 0.0 0.0 0.00 0.00 0.00 45 1009.2
20260503232015 7 283 0.0 3.2 0.00 0.00 0.00 43 1009.2
20260503231013 7 265 0.0 0.0 0.00 0.00 0.00 43 1009.1
20260503230513 8 227 0.0 3.2 0.00 0.00 0.00 45 1009.1
20260503230012 8 298 0.0 0.0 0.00 0.00 0.00 43 1009.0
20260503225511 8 246 0.0 0.0 0.00 0.00 0.00 43 1009.0
20260503224515 8 228 0.0 9.7 0.00 0.00 0.00 42 1008.9
20260503224014 8 270 0.0 1.6 0.00 0.00 0.00 42 1008.9
20260503223513 8 246 0.0 4.8 0.00 0.00 0.00 40 1008.9
20260503223010 8 288 0.0 0.0 0.00 0.00 0.00 42 1008.9
20260503222510 8 271 4.8 16.1 0.00 0.00 0.00 40 1008.9
20260503222015 8 242 0.0 0.0 0.00 0.00 0.00 38 1008.9
20260503221515 9 253 0.0 1.6 0.00 0.00 0.00 41 1008.9
20260503221014 9 257 0.0 1.6 0.00 0.00 0.00 39 1008.9
20260503220513 9 263 0.0 1.6 0.00 0.00 0.00 40 1008.8
20260503220013 9 246 1.6 3.2 0.00 0.00 0.00 39 1008.8
20260503215512 9 273 1.6 12.9 0.00 0.00 0.00 39 1008.9
20260503215012 9 290 1.6 4.8 0.00 0.00 0.00 38 1008.9
20260503213513 10 296 0.0 3.2 0.00 0.00 0.00 39 1008.8
20260503213011 10 307 4.8 16.1 0.00 0.00 0.00 39 1008.9
20260503212510 10 263 6.4 19.3 0.00 0.00 0.00 37 1008.9
20260503212010 9 266 17.7 25.7 0.00 0.00 0.00 40 1008.9
20260503211515 9 267 8.0 19.3 0.00 0.00 0.00 41 1008.8
20260503211014 8 238 0.0 1.6 0.00 0.00 0.00 44 1008.7
20260503210514 8 260 3.2 19.3 0.00 0.00 0.00 42 1008.8
20260503210013 9 249 1.6 14.5 0.00 0.00 0.00 43 1008.9
20260503205512 9 257 0.0 0.0 0.00 0.00 0.00 43 1008.9
20260503205012 8 274 0.0 3.2 0.00 0.00 0.00 42 1008.9
20260503204511 8 298 0.0 3.2 0.00 0.00 0.00 43 1008.8
20260503204011 8 271 0.0 0.0 0.00 0.00 0.00 42 1008.9
20260503203510 9 244 0.0 4.8 0.00 0.03 0.00 41 1009.0
20260503202512 8 271 8.0 16.1 0.00 0.03 0.00 44 1008.9
20260503202011 8 236 0.0 0.0 0.00 0.03 0.00 44 1009.0
20260503201510 8 249 0.0 0.0 0.00 0.03 0.00 46 1009.1
20260503200514 8 290 1.6 12.9 0.00 0.03 0.00 43 1009.1
20260503200013 8 264 0.0 4.8 0.00 0.03 0.00 46 1009.1
20260503195513 8 273 0.0 0.0 0.00 0.03 0.00 47 1009.2
20260503195012 8 258 0.0 0.0 0.00 0.03 0.00 44 1009.3
20260503194512 8 254 0.0 1.6 0.00 0.03 0.00 43 1009.4
20260503194011 8 301 0.0 0.0 0.00 0.03 0.00 43 1009.5
20260503193012 8 284 0.0 0.0 0.00 0.03 0.00 45 1009.5
20260503192512 8 250 0.0 3.2 0.00 0.03 0.00 47 1009.6
20260503192011 8 265 0.0 3.2 0.00 0.03 0.00 45 1009.5
20260503191511 8 213 0.0 0.0 0.00 0.03 0.00 46 1009.5
20260503191010 8 269 0.0 0.0 0.00 0.03 0.00 46 1009.7
20260503190516 7 261 4.8 20.9 0.00 0.03 0.00 44 1009.8
20260503190015 7 291 3.2 14.5 0.00 0.03 0.00 46 1009.8
20260503185515 7 303 0.0 0.0 0.00 0.03 0.00 45 1009.8
20260503185014 7 281 1.6 8.0 0.00 0.03 0.00 45 1009.9
20260503184513 7 292 1.6 14.5 0.00 0.03 0.00 44 1009.8
20260503184013 8 294 1.6 9.7 0.00 0.03 0.00 45 1009.8
20260503182012 8 280 0.0 3.2 0.00 0.05 0.00 45 1010.0
20260503181010 8 305 0.0 0.0 0.00 0.05 0.00 45 1010.0
20260503180014 7 292 1.6 14.5 0.00 0.05 0.00 46 1010.1
20260503175513 7 261 0.0 1.6 0.00 0.05 0.00 46 1010.1
20260503175012 7 262 3.2 16.1 0.00 0.05 0.00 46 1010.1
20260503174512 7 254 1.6 11.3 0.00 0.05 0.00 46 1010.1
20260503174011 7 301 1.6 4.8 0.00 0.05 0.00 48 1010.1
20260503173511 7 299 0.0 4.8 0.00 0.05 0.00 46 1010.2
20260503173015 7 289 1.6 14.5 0.00 0.05 0.00 47 1010.4
20260503172013 7 250 0.0 1.6 0.00 0.05 0.00 49 1010.3
20260503171512 7 273 0.0 1.6 0.00 0.05 0.00 48 1010.4
20260503171011 7 282 1.6 11.3 0.00 0.05 0.00 50 1010.3
20260503170511 7 281 0.0 1.6 0.00 0.05 0.00 50 1010.3
20260503151013 6 324 0.0 0.0 0.00 0.05 0.00 57 1011.4
20260503131012 4 280 0.0 0.0 0.00 0.05 0.00 74 1012.0
20260503110515 1 286 0.0 1.6 0.00 0.05 0.00 90 1011.7
20260503090513 1 290 0.0 0.0 0.00 0.08 0.00 89 1011.5
20260503081512 1 321 0.0 0.0 0.00 0.08 0.00 90 1011.8
20260503081011 1 265 0.0 0.0 0.00 0.08 0.00 90 1011.8
20260503080510 1 277 0.0 0.0 0.00 0.08 0.00 90 1011.8
20260503072513 1 277 0.0 0.0 0.00 0.10 0.00 90 1011.9